Location: Melara
(45.0500°N, 11.1833°E)
Time: 21:08:19
(UTC+00:00)

USA 305 - Pass Details

Date: 26 May 2022
Orbit: 549 x 553 km, 54.0° (Epoch: 14 June)

Event Time Altitude Azimuth Distance (km) Brightness Sun altitude
Exits shadow 01:02:59 25° 272° (W) 1,134 4.2 -19.2°
Maximum altitude 01:05:04 47° 333° (NNW) 732 3.6 -19.0°
Drops below altitude 10° 01:09:05 10° 49° (NE) 1,827 6.5 -18.7°
Sets 01:11:23 0° 55° (NE) 2,723 7.5 -18.5°
